Zurück zum Katalog

FREGAT R/B

LostHEO
NORAD 37939·ROCKET BODY·🇷🇺 Russia

Gestartet Nov 28, 2011 von Plesetsk Cosmodrome

Loading…

Nächste Überflüge (nächste 24 Stunden)

TLE

VeraltetSource: Space-Track

Epoche: Aug 5, 2026, 20:14 UTC

1 37939U 11071B   26217.84353956 -.00000059  00000-0  00000+0 0  9996
2 37939  65.6274 320.7205 0072673  83.2326 245.8437  2.09024524112129

Verfolge FREGAT R/B in Echtzeit mit AllMySat

Download on the App Store